When you browse on this site, cookies collect data to enhance your experience and personalize the content and advertising you see.
Visit our Privacy Policy to learn more. By continuing to use the site, you agree to this use of cookies and data.
  • In Hungary
  • List of Countries
  • For 7 days
  • Water Temperature
  • Satellite Maps
  • Weather Map
  • News
  • Weather Widgets
  • user-avatar
    Login

    Hourly Weather Kofu

    Today, 17 November, Saturday

    Time Temperature Precipitation Wind Pressure Humidity
    00:00 +7°C° 0 mm 1 mps 672 mmHg 70%
    01:00 +7°C° 0 mm 1 mps 672 mmHg 67%
    02:00 +6°C° 0 mm 1 mps 672 mmHg 65%
    03:00 +6°C° 0 mm 1 mps 671 mmHg 64%
    04:00 +6°C° 0 mm 1 mps 671 mmHg 63%
    05:00 +5°C° 0 mm 1 mps 671 mmHg 62%
    06:00 +5°C° 0 mm 1 mps 671 mmHg 61%
    07:00 +7°C° 0 mm 1 mps 672 mmHg 55%
    08:00 +10°C° 0 mm 1 mps 672 mmHg 49%
    09:00 +11°C° 0 mm 0 mps 672 mmHg 41%
    10:00 +13°C° 0 mm 1 mps 672 mmHg 39%
    11:00 +14°C° 0 mm 1 mps 672 mmHg 37%
    12:00 +15°C° 0 mm 1 mps 672 mmHg 35%
    13:00 +15°C° 0 mm 2 mps 672 mmHg 38%
    14:00 +15°C° 0 mm 2 mps 672 mmHg 40%
    15:00 +14°C° 0 mm 2 mps 672 mmHg 45%
    16:00 +12°C° 0 mm 1 mps 672 mmHg 53%
    17:00 +10°C° 0 mm 1 mps 672 mmHg 60%
    18:00 +8°C° 0 mm 1 mps 672 mmHg 67%
    19:00 +8°C° 0 mm 1 mps 672 mmHg 69%
    20:00 +7°C° 0 mm 1 mps 672 mmHg 71%
    21:00 +7°C° 0 mm 1 mps 672 mmHg 71%
    22:00 +7°C° 0 mm 1 mps 672 mmHg 72%
    23:00 +6°C° 0 mm 1 mps 672 mmHg 74%

    Tomorrow, 18 November, Sunday

    Time Temperature Precipitation Wind Pressure Humidity
    00:00 +6°C° 0 mm 1 mps 672 mmHg 75%
    01:00 +6°C° 0 mm 1 mps 672 mmHg 75%
    02:00 +6°C° 0 mm 1 mps 672 mmHg 76%
    03:00 +5°C° 0 mm 1 mps 672 mmHg 76%
    04:00 +5°C° 0 mm 1 mps 672 mmHg 77%
    05:00 +5°C° 0 mm 1 mps 673 mmHg 78%
    06:00 +5°C° 0 mm 1 mps 673 mmHg 79%
    07:00 +7°C° 0 mm 1 mps 673 mmHg 74%
    08:00 +9°C° 0 mm 1 mps 674 mmHg 68%
    09:00 +10°C° 0 mm 1 mps 674 mmHg 63%
    10:00 +11°C° 0 mm 1 mps 674 mmHg 58%
    11:00 +12°C° 0 mm 2 mps 674 mmHg 54%
    12:00 +13°C° 0 mm 2 mps 674 mmHg 49%
    13:00 +13°C° 0 mm 2 mps 673 mmHg 53%
    14:00 +13°C° 0 mm 2 mps 673 mmHg 56%
    15:00 +12°C° 0 mm 2 mps 673 mmHg 59%
    16:00 +10°C° 0 mm 2 mps 673 mmHg 66%
    17:00 +9°C° 0 mm 2 mps 673 mmHg 73%
    18:00 +8°C° 0 mm 1 mps 673 mmHg 80%
    19:00 +8°C° 0 mm 1 mps 673 mmHg 81%
    20:00 +8°C° 0 mm 1 mps 672 mmHg 82%
    21:00 +8°C° 0 mm 1 mps 672 mmHg 83%
    22:00 +8°C° 0 mm 1 mps 672 mmHg 82%
    23:00 +8°C° 0 mm 1 mps 672 mmHg 82%

    Day after tomorrow, 19 November, Monday

    Time Temperature Precipitation Wind Pressure Humidity
    00:00 +8°C° 0 mm 1 mps 672 mmHg 81%
    01:00 +8°C° 0.1 mm 1 mps 671 mmHg 82%
    02:00 +8°C° 0.1 mm 1 mps 671 mmHg 82%
    03:00 +8°C° 0.1 mm 1 mps 671 mmHg 82%
    04:00 +8°C° 0.1 mm 1 mps 671 mmHg 83%
    05:00 +8°C° 0.1 mm 1 mps 671 mmHg 84%
    06:00 +8°C° 0.1 mm 1 mps 670 mmHg 84%
    07:00 +9°C° 0.1 mm 1 mps 671 mmHg 81%
    08:00 +10°C° 0.1 mm 1 mps 671 mmHg 77%
    09:00 +11°C° 0.1 mm 1 mps 672 mmHg 73%
    10:00 +11°C° 0.1 mm 1 mps 672 mmHg 68%
    11:00 +12°C° 0.1 mm 1 mps 671 mmHg 63%
    12:00 +13°C° 0.1 mm 1 mps 671 mmHg 58%
    13:00 +13°C° 0 mm 1 mps 671 mmHg 57%
    14:00 +13°C° 0 mm 1 mps 671 mmHg 56%
    15:00 +13°C° 0 mm 2 mps 670 mmHg 55%
    16:00 +10°C° 0 mm 2 mps 670 mmHg 61%
    17:00 +9°C° 0 mm 1 mps 670 mmHg 67%
    18:00 +7°C° 0 mm 1 mps 670 mmHg 73%
    19:00 +7°C° 0.2 mm 1 mps 670 mmHg 73%
    20:00 +6°C° 0.2 mm 1 mps 671 mmHg 74%
    21:00 +5°C° 0.2 mm 2 mps 671 mmHg 74%
    22:00 +5°C° 0 mm 1 mps 671 mmHg 74%
    23:00 +5°C° 0 mm 1 mps 671 mmHg 74%

    20 November, Tuesday

    Time Temperature Precipitation Wind Pressure Humidity
    00:00 +5°C° 0 mm 1 mps 671 mmHg 74%
    01:00 +4°C° 0 mm 1 mps 671 mmHg 73%
    02:00 +4°C° 0 mm 1 mps 671 mmHg 72%
    03:00 +4°C° 0 mm 1 mps 672 mmHg 71%
    04:00 +3°C° 0 mm 1 mps 672 mmHg 69%
    05:00 +3°C° 0 mm 1 mps 672 mmHg 68%
    06:00 +3°C° 0 mm 1 mps 672 mmHg 66%
    07:00 +5°C° 0 mm 1 mps 673 mmHg 59%
    08:00 +7°C° 0 mm 1 mps 674 mmHg 52%
    09:00 +9°C° 0 mm 1 mps 674 mmHg 45%
    10:00 +9°C° 0 mm 1 mps 674 mmHg 43%
    11:00 +9°C° 0 mm 2 mps 674 mmHg 42%
    12:00 +10°C° 0 mm 2 mps 674 mmHg 40%
    13:00 +10°C° 0 mm 2 mps 674 mmHg 42%
    14:00 +10°C° 0 mm 2 mps 674 mmHg 44%
    15:00 +9°C° 0 mm 2 mps 674 mmHg 46%
    16:00 +7°C° 0 mm 2 mps 674 mmHg 54%
    17:00 +7°C° 0 mm 1 mps 674 mmHg 61%
    18:00 +5°C° 0 mm 1 mps 674 mmHg 69%
    19:00 +5°C° 0 mm 1 mps 675 mmHg 71%
    20:00 +4°C° 0 mm 1 mps 675 mmHg 73%
    21:00 +4°C° 0 mm 1 mps 675 mmHg 74%
    22:00 +4°C° 0 mm 1 mps 675 mmHg 74%
    23:00 +3°C° 0 mm 1 mps 674 mmHg 73%

    21 November, Wednesday

    Time Temperature Precipitation Wind Pressure Humidity
    00:00 +3°C° 0 mm 1 mps 674 mmHg 72%
    01:00 +3°C° 0 mm 1 mps 674 mmHg 70%
    02:00 +3°C° 0 mm 1 mps 674 mmHg 68%
    03:00 +2°C° 0 mm 1 mps 674 mmHg 66%
    04:00 +2°C° 0 mm 1 mps 674 mmHg 63%
    05:00 +2°C° 0 mm 1 mps 674 mmHg 61%
    06:00 +2°C° 0 mm 1 mps 674 mmHg 59%
    07:00 +5°C° 0 mm 1 mps 675 mmHg 52%
    08:00 +7°C° 0 mm 1 mps 676 mmHg 46%
    09:00 +9°C° 0 mm 1 mps 676 mmHg 40%
    10:00 +11°C° 0 mm 1 mps 676 mmHg 36%
    11:00 +12°C° 0 mm 1 mps 676 mmHg 32%
    12:00 +13°C° 0 mm 2 mps 676 mmHg 28%
    13:00 +13°C° 0 mm 2 mps 675 mmHg 30%
    14:00 +12°C° 0 mm 2 mps 674 mmHg 31%
    15:00 +12°C° 0 mm 2 mps 674 mmHg 33%
    16:00 +10°C° 0 mm 1 mps 674 mmHg 38%
    17:00 +8°C° 0 mm 1 mps 673 mmHg 44%
    18:00 +7°C° 0 mm 1 mps 673 mmHg 49%
    19:00 +7°C° 0 mm 1 mps 673 mmHg 48%
    20:00 +6°C° 0 mm 1 mps 673 mmHg 47%
    21:00 +6°C° 0 mm 1 mps 673 mmHg 46%
    22:00 +6°C° 0 mm 1 mps 672 mmHg 44%
    23:00 +6°C° 0 mm 1 mps 672 mmHg 42%

    22 November, Thursday

    Time Temperature Precipitation Wind Pressure Humidity
    00:00 +6°C° 0 mm 1 mps 671 mmHg 40%
    01:00 +6°C° 0 mm 1 mps 671 mmHg 39%
    02:00 +6°C° 0 mm 1 mps 671 mmHg 39%
    03:00 +6°C° 0 mm 1 mps 671 mmHg 39%
    04:00 +6°C° 0.1 mm 1 mps 671 mmHg 44%
    05:00 +6°C° 0.1 mm 1 mps 670 mmHg 49%
    06:00 +5°C° 0.1 mm 1 mps 670 mmHg 55%
    07:00 +6°C° 0.3 mm 1 mps 670 mmHg 59%
    08:00 +6°C° 0.3 mm 1 mps 670 mmHg 62%
    09:00 +6°C° 0.3 mm 1 mps 670 mmHg 66%
    10:00 +7°C° 0.1 mm 1 mps 670 mmHg 63%
    11:00 +8°C° 0.1 mm 1 mps 669 mmHg 61%
    12:00 +8°C° 0.1 mm 2 mps 669 mmHg 58%
    13:00 +8°C° 0 mm 2 mps 669 mmHg 58%
    14:00 +8°C° 0 mm 2 mps 668 mmHg 58%
    15:00 +8°C° 0 mm 3 mps 668 mmHg 58%
    16:00 +7°C° 0 mm 2 mps 668 mmHg 64%
    17:00 +5°C° 0 mm 2 mps 668 mmHg 69%
    18:00 +4°C° 0 mm 2 mps 668 mmHg 74%
    19:00 +3°C° 0 mm 2 mps 668 mmHg 72%
    20:00 +2°C° 0 mm 3 mps 668 mmHg 70%
    21:00 +1°C° 0 mm 3 mps 668 mmHg 68%
    22:00 +1°C° 0 mm 3 mps 668 mmHg 66%
    23:00 0°C° 0 mm 3 mps 668 mmHg 65%
    Show more